Tracking 17264 objects as of 2-September-2015
HD Live streaming from Space Station

Track Soyuz TMA-18M
and Space Station

FALCON 9 R/B

Track FALCON 9 R/B now!
10-day predictions
FALCON 9 R/B is classified as:


NORAD ID: 37253
Int'l Code: 2010-066K
Perigee: 297.0 km
Apogee: 10,394.2 km
Inclination: 34.5 °
Period: 210.4 minutes
Semi major axis: 11716 km
RCS: 20.0149 m2 (large)
Launch date: December 8, 2010
Source: United States (US)

Note: This is a ROCKET BODY
Your satellite tracking list
Your tracking list is empty





NASA's NSSDC Master Catalog

Two Line Element Set (TLE):
1 37253U 10066K   15244.12398664  .00004412  00000-0  41414-3 0  9996
2 37253  34.5220 243.2200 4308920 230.4027  82.9463  6.84540508115521

Source of the keplerian elements: AFSPC

N2YO: 239